User: anonymous
Location: Bothell
(47.7630°N, 122.2040°W)
Time: 16:13:47
(UTC-07:00)
Language:

Oscar 16 - Orbit

View from above orbital plane
View from above orbital plane
View from above satellite
View from above satellite

Ground track
Ground track

The orbit data is extracted from the following two-line orbital elements,

1 20439U 90005D   14237.81443972  .00000101  00000-0  53290-4 0   982
2 20439 098.5095 173.8495 0009871 317.7716 095.7084 14.32378061284451
Epoch (UTC): 25 August 2014 19:32:47
Eccentricity: 0.0009871
inclination: 98.5095°
perigee height: 777 km
apogee height: 791 km
right ascension of ascending node: 173.8495°
argument of perigee: 317.7716°
revolutions per day: 14.32378061
mean anomaly at epoch: 95.7084°
orbit number at epoch: 28445

The dashed part of the orbit path shows where the satellite is in the earth's shadow,  

DLR